EW5648 Weather Reports


time (UTC)temp
C
wind
direction
speed
KPH
gust
KPH
rain 1hr
cm
rain 24hr
cm
rain mn
cm
humidity
%
barometer
mb
20260504050021 17 34 4.8 8.0 0.00 0.05 0.00 64 1010.3
20260504045110 17 58 1.6 3.2 0.00 0.10 0.00 65 1010.3
20260504044021 17 0.0 0.0 0.00 0.10 0.00 65 1010.2
20260504043026 18 136 3.2 11.3 0.00 0.10 0.00 64 1010.1
20260504042034 18 100 3.2 8.0 0.00 0.10 0.00 64 1010.2
20260504041025 18 338 6.4 8.0 0.00 0.10 0.00 62 1010.1
20260504040018 18 4 8.0 19.3 0.00 0.10 0.00 60 1010.1
20260504035025 18 322 4.8 16.1 0.00 0.13 0.00 60 1010.1
20260504034027 18 318 1.6 8.0 0.00 0.15 0.00 62 1010.1
20260504033030 18 333 1.6 8.0 0.00 0.18 0.00 63 1010.1
20260504032020 18 52 14.5 24.1 0.00 0.28 0.00 63 1010.1
20260504031027 18 333 4.8 8.0 0.00 0.33 0.00 64 1010.2
20260504030030 18 337 3.2 11.3 0.00 0.43 0.00 63 1010.3
20260504025023 18 345 4.8 11.3 0.00 0.46 0.00 64 1010.4
20260504024029 18 347 4.8 11.3 0.00 0.46 0.00 63 1010.4
20260504023030 18 2 6.4 16.1 0.00 0.46 0.00 63 1010.5
20260504022054 18 36 6.4 16.1 0.00 0.46 0.00 64 1010.5
20260504021026 18 3 4.8 16.1 0.00 0.46 0.00 64 1010.7
20260504020114 18 24 3.2 11.3 0.00 0.56 0.00 64 1010.8
20260504015025 18 47 6.4 16.1 0.00 0.64 0.00 66 1010.9
20260504014030 17 311 1.6 3.2 0.00 0.66 0.00 67 1011.0
20260504013030 17 98 8.0 16.1 0.00 0.76 0.00 68 1011.0
20260504012018 17 75 4.8 27.4 0.00 0.86 0.00 68 1011.0
20260504011025 17 207 4.8 8.0 0.00 0.99 0.00 68 1011.2
20260504010030 17 53 9.7 16.1 0.00 1.04 0.00 67 1011.1
20260504005031 18 133 17.7 19.3 0.00 1.09 0.00 68 1011.1
20260504004121 18 98 3.2 8.0 0.00 1.14 0.00 68 1011.4
20260504003020 18 50 3.2 16.1 0.00 1.19 0.00 66 1011.2
20260504002026 18 33 0.0 3.2 0.00 1.19 0.00 64 1011.4
20260504001029 18 44 8.0 11.3 0.00 1.19 0.00 65 1011.3
20260504000030 17 313 1.6 3.2 0.00 1.19 0.00 64 1011.2
20260503235041 17 313 1.6 3.2 0.00 1.19 0.00 64 1011.0
20260503234018 17 209 9.7 16.1 0.00 1.19 0.00 64 1011.4
20260503233046 16 30 3.2 3.2 0.00 1.19 0.00 67 1011.5
20260503232023 16 84 8.0 16.1 0.00 1.19 0.00 67 1011.3
20260503231024 16 92 12.9 16.1 0.00 1.19 0.00 68 1011.0
20260503230025 16 161 0.0 3.2 0.00 1.19 0.00 71 1010.8
20260503225030 15 70 6.4 8.0 0.00 1.19 0.00 69 1010.9
20260503224019 15 115 11.3 16.1 0.00 1.19 0.00 69 1011.0
20260503223025 14 0.0 0.0 0.00 1.19 0.00 78 1011.2
20260503222031 13 106 0.0 3.2 0.00 1.19 0.00 85 1011.3
20260503221031 13 355 0.0 3.2 0.00 1.19 0.00 86 1011.3
20260503220029 13 87 0.0 3.2 0.00 1.19 0.00 88 1011.4
20260503215029 13 345 0.0 3.2 0.00 1.19 0.00 88 1011.6
20260503214032 13 113 1.6 11.3 0.00 1.19 0.00 88 1011.5
20260503213125 13 114 1.6 11.3 0.00 1.19 0.00 87 1011.6
20260503212020 13 133 3.2 11.3 0.00 1.22 0.00 86 1011.6
20260503211025 12 124 3.2 16.1 0.00 1.22 0.00 86 1011.5
20260503210051 12 124 3.2 11.3 0.00 1.22 0.00 86 1011.5
20260503205104 12 77 1.6 8.0 0.00 1.22 0.00 85 1011.4
20260503204031 12 123 0.0 8.0 0.00 1.22 0.00 85 1011.4
20260503203026 12 121 1.6 8.0 0.00 1.27 0.00 88 1011.3
20260503202112 11 20 1.6 8.0 0.00 1.27 0.00 90 1011.2
20260503201022 11 70 1.6 8.0 0.00 1.27 0.00 90 1011.1
20260503200034 11 110 1.6 8.0 0.00 1.27 0.00 90 1011.1
20260503195027 12 43 0.0 11.3 0.00 1.27 0.00 89 1011.0
20260503194033 12 36 0.0 3.2 0.00 1.27 0.00 88 1011.1
20260503193023 12 95 0.0 8.0 0.00 1.27 0.00 88 1011.1
20260503192031 12 110 0.0 3.2 0.00 1.27 0.00 88 1011.1
20260503191042 12 117 0.0 3.2 0.00 1.27 0.00 86 1011.3
20260503190032 12 32 0.0 3.2 0.00 1.27 0.00 87 1011.5
20260503185024 12 121 0.0 3.2 0.00 1.30 0.00 88 1011.4
20260503184039 11 109 0.0 3.2 0.00 1.32 0.00 88 1011.6
20260503183023 11 103 1.6 8.0 0.00 1.32 0.00 91 1011.6
20260503182032 11 74 0.0 3.2 0.00 1.32 0.00 91 1011.7
20260503181101 12 128 0.0 8.0 0.00 1.32 0.00 91 1011.8
20260503180024 12 86 0.0 3.2 0.00 1.32 0.00 91 1012.0
20260503175029 12 45 0.0 3.2 0.00 1.32 0.00 91 1012.1
20260503174147 12 56 0.0 3.2 0.00 1.32 0.00 90 1012.1
20260503173037 12 0.0 0.0 0.00 1.32 0.00 90 1011.9
20260503172131 12 0.0 0.0 0.00 1.32 0.00 89 1011.9
20260503171025 12 0.0 0.0 0.00 1.32 0.00 88 1011.8
20260503131025 14 73 3.2 8.0 0.00 1.32 1.32 84 1012.4
20260503081021 15 15 1.6 3.2 0.00 1.32 1.32 90 1011.4
20260503072023 15 99 0.0 3.2 0.05 1.32 1.32 97 1011.2
20260503071023 16 32 1.6 3.2 0.05 1.32 1.32 98 1011.1
20260503055024 17 92 6.4 8.0 0.03 1.27 1.27 97 1009.8
20260503054033 17 348 4.8 16.1 0.03 1.27 1.27 98 1010.0
20260503053040 17 56 14.5 24.1 0.03 1.27 1.27 98 1009.9